Location: Hohe Wand Kleine Kanzel
(47.8330°N, 16.0170°E)
Time: 17:56:04
(UTC+02:00)

Vanguard 3 - Pass Details

Date: 01 August 2021
Orbit: 510 x 3260 km, 33.4° (Epoch: 23 September)

Event Time Altitude Azimuth Distance (km) Brightness Sun altitude
Rises 01:47:15 0° 277° (W) 7,227 11.9 -23.4°
Reaches altitude 10° 01:54:39 10° 262° (W) 6,147 11.4 -23.1°
Enters shadow 02:04:32 18° 230° (SW) 5,146 10.7 -22.7°
